Carlsbad, NM

7:28 PM MST on February 07, 2016 (GMT -0700)
Cavern City

Weather History for KCNM - July, 2013

Change the Weather History Date:

Thursday, July 18, 2013

  Actual Average Record
Temperature  
Mean Temperature 72 °F -  
Max Temperature 77 °F 95 °F 109 °F (1989)
Min Temperature 66 °F 68 °F 61 °F (1987)
Cooling Degree Days 6    
Growing Degree Days 22 (Base 50)    
Moisture  
Dew Point 66 °F    
Average Humidity 89    
Maximum Humidity 100    
Minimum Humidity 62    
Precipitation  
Precipitation 1.77 in - - ()
Sea Level Pressure  
Sea Level Pressure 30.14 in    
Wind  
Wind Speed 6 mph (ESE)    
Max Wind Speed 15 mph    
Max Gust Speed 24 mph    
Visibility 6 miles    
Events Fog , Rain    
Averages and records for this station are not official NWS values.
T = Trace of Precipitation, MM = Missing Value Source: NWS Daily Summary

Daily Weather History Graph

Daily Weather History Graph

Search for Another Location

Airport or City:

Trip Planner

Search our weather history database for the weather conditions in past years. The results will help you decide how hot, cold, wet, or windy it might be!

Date:

Astronomy

Jul. 18, 2013 Rise Set
Actual Time 6:02 AM MDT 8:03 PM MDT
Civil Twilight 5:35 AM MDT 8:31 PM MDT
Nautical Twilight 5:01 AM MDT 9:04 PM MDT
Astronomical Twilight 4:25 AM MDT 9:40 PM MDT
Moon 4:04 PM MDT (7/18) 1:52 AM MDT (7/18)
Length of Visible Light 14h 55m
Length of Day
14h 00m
Waxing Gibbous, 78% of the Moon is Illuminated
Jul 18
Waxing Gibbous
Jul 22
Full
Jul 29
Last Quarter
Aug 6
New
Aug 14
First Quarter

Hourly Weather History & Observations

Time (MDT) Temp. Dew Point Humidity Pressure Visibility Wind Dir Wind Speed Gust Speed Precip Events Conditions
12:47 AM 66.2 °F 64.4 °F 94% 30.24 in 2.5 mi NNW 6.9 mph - 0.06 in Rain Heavy Rain
12:53 AM 66.0 °F 64.0 °F 93% 30.13 in 3.0 mi NNW 8.1 mph - 0.06 in Rain Light Rain
1:53 AM 66.9 °F 64.9 °F 93% 30.11 in 5.0 mi North 4.6 mph - 0.04 in Rain Light Rain
2:29 AM 66.2 °F 64.4 °F 94% 30.22 in 2.5 mi NNW 3.5 mph - 0.07 in Rain Rain
2:53 AM 66.9 °F 64.9 °F 93% 30.10 in 3.0 mi NNW 3.5 mph - 0.13 in Rain Rain
3:20 AM 66.2 °F 64.4 °F 94% 30.20 in 4.0 mi NNW 4.6 mph - 0.04 in Rain Light Rain
3:53 AM 66.9 °F 64.9 °F 93% 30.08 in 6.0 mi North 3.5 mph - 0.06 in Rain Light Rain
4:09 AM 66.2 °F 64.4 °F 94% 30.19 in 6.0 mi NNW 3.5 mph - 0.01 in Rain Light Rain
4:29 AM 66.2 °F 64.4 °F 94% 30.19 in 7.0 mi Calm Calm - 0.01 in Rain Light Rain
4:40 AM 66.2 °F 64.4 °F 94% 30.19 in 6.0 mi NNW 4.6 mph - 0.01 in Rain Light Rain
4:53 AM 66.9 °F 64.9 °F 93% 30.06 in 3.0 mi NNW 5.8 mph - 0.04 in Rain Rain
5:18 AM 66.2 °F 64.4 °F 94% 30.19 in 1.8 mi North 6.9 mph - 0.08 in Rain Rain
5:42 AM 66.2 °F 64.4 °F 94% 30.19 in 0.5 mi NW 6.9 mph - 0.45 in Fog , Rain Heavy Rain
5:53 AM 66.0 °F 64.9 °F 96% 30.08 in 1.0 mi NNE 3.5 mph - 0.61 in Rain Light Rain
6:20 AM 66.2 °F 64.4 °F 94% 30.21 in 2.0 mi ENE 10.4 mph - 0.25 in Rain Light Rain
6:22 AM 66.2 °F 64.4 °F 94% 30.21 in 4.0 mi East 10.4 mph - 0.25 in Rain Light Rain
6:53 AM 66.9 °F 64.9 °F 93% 30.09 in 10.0 mi East 3.5 mph - 0.25 in   Overcast
7:28 AM 66.2 °F 64.4 °F 94% 30.21 in 5.0 mi Calm Calm - 0.00 in Rain Light Rain
7:33 AM 66.2 °F 64.4 °F 94% 30.22 in 1.8 mi East 4.6 mph - 0.02 in Rain Light Rain
7:48 AM 66.2 °F 64.4 °F 94% 30.22 in 0.8 mi East 4.6 mph - 0.14 in Rain Heavy Rain
7:53 AM 66.9 °F 64.9 °F 93% 30.09 in 0.5 mi ENE 3.5 mph - 0.19 in Fog , Rain Heavy Rain
8:13 AM 66.2 °F 64.4 °F 94% 30.22 in 0.8 mi Calm Calm - 0.23 in Rain Heavy Rain
8:30 AM 66.2 °F 66.2 °F 100% 30.22 in 1.8 mi East 9.2 mph - 0.30 in Rain Light Rain
8:32 AM 66.2 °F 66.2 °F 100% 30.22 in 4.0 mi East 9.2 mph - 0.30 in Rain Light Rain
8:42 AM 66.2 °F 66.2 °F 100% 30.23 in 7.0 mi ESE 8.1 mph - 0.30 in Rain Light Rain
8:53 AM 66.9 °F 66.0 °F 97% 30.11 in 6.0 mi East 9.2 mph - 0.31 in Rain Light Rain
9:12 AM 66.2 °F 66.2 °F 100% 30.23 in 2.5 mi ESE 9.2 mph - 0.03 in Rain Light Rain
9:27 AM 66.2 °F 64.4 °F 94% 30.23 in 4.0 mi SE 15.0 mph 24.2 mph 0.03 in Rain Light Rain
9:53 AM 68.0 °F 66.0 °F 93% 30.10 in 5.0 mi SE 12.7 mph 20.7 mph 0.03 in Rain Light Rain
10:05 AM 68.0 °F 66.2 °F 94% 30.23 in 3.0 mi SE 10.4 mph - 0.01 in Rain Light Rain
10:25 AM 69.8 °F 66.2 °F 88% 30.23 in 10.0 mi ESE 8.1 mph - 0.01 in   Overcast
10:49 AM 69.8 °F 66.2 °F 88% 30.23 in 10.0 mi SE 12.7 mph - 0.01 in Rain Light Rain
10:53 AM 70.0 °F 66.0 °F 87% 30.10 in 10.0 mi SE 9.2 mph - 0.01 in Rain Light Rain
11:04 AM 69.8 °F 66.2 °F 88% 30.23 in 10.0 mi SE 9.2 mph - 0.00 in   Overcast
11:12 AM 71.6 °F 66.2 °F 83% 30.23 in 10.0 mi SE 9.2 mph - 0.00 in   Overcast
11:36 AM 69.8 °F 66.2 °F 88% 30.22 in 5.0 mi South 10.4 mph - 0.00 in Rain Light Rain
11:51 AM 69.8 °F 66.2 °F 88% 30.22 in 8.0 mi SSE 9.2 mph - 0.00 in   Overcast
11:53 AM 71.1 °F 66.9 °F 87% 30.09 in 9.0 mi SSE 9.2 mph - 0.00 in   Overcast
12:28 PM 69.8 °F 66.2 °F 88% 30.21 in 2.0 mi SE 5.8 mph - 0.01 in Rain Light Rain
12:34 PM 69.8 °F 66.2 °F 88% 30.21 in 6.0 mi SE 5.8 mph - 0.01 in   Overcast
12:53 PM 72.0 °F 66.0 °F 81% 30.07 in 10.0 mi SSE 8.1 mph - 0.01 in   Overcast
1:21 PM 73.4 °F 66.2 °F 78% 30.19 in 10.0 mi SE 5.8 mph - N/A   Overcast
1:50 PM 71.6 °F 66.2 °F 83% 30.18 in 10.0 mi SSE 10.4 mph - 0.00 in   Mostly Cloudy
1:53 PM 73.0 °F 66.0 °F 79% 30.05 in 10.0 mi SSE 10.4 mph - 0.00 in   Mostly Cloudy
2:15 PM 71.6 °F 66.2 °F 83% 30.18 in 2.5 mi SE 9.2 mph - 0.02 in Rain Light Rain
2:22 PM 71.6 °F 68.0 °F 88% 30.18 in 10.0 mi SE 8.1 mph - 0.02 in Rain Light Rain
2:53 PM 73.9 °F 68.0 °F 82% 30.03 in 8.0 mi SSE 9.2 mph - 0.03 in Rain Light Rain
3:53 PM 75.9 °F 66.0 °F 71% 30.01 in 10.0 mi SSE 11.5 mph - 0.00 in   Overcast
4:17 PM 75.2 °F 66.2 °F 73% 30.15 in 10.0 mi SE 15.0 mph - N/A   Scattered Clouds
4:53 PM 75.9 °F 64.9 °F 69% 29.99 in 10.0 mi SSE 10.4 mph - N/A   Mostly Cloudy
5:53 PM 77.0 °F 63.0 °F 62% 29.97 in 10.0 mi SE 8.1 mph - N/A   Clear
6:53 PM 75.9 °F 64.0 °F 67% 29.97 in 10.0 mi SSE 5.8 mph - N/A   Clear
7:53 PM 73.9 °F 66.0 °F 76% 29.97 in 10.0 mi South 4.6 mph - N/A   Clear
8:53 PM 72.0 °F 66.9 °F 84% 29.98 in 10.0 mi South 4.6 mph - N/A   Clear
9:53 PM 70.0 °F 66.9 °F 90% 30.00 in 10.0 mi Calm Calm - N/A   Clear
10:53 PM 70.0 °F 66.9 °F 90% 30.01 in 10.0 mi Calm Calm - N/A   Clear
11:53 PM 70.0 °F 66.9 °F 90% 30.01 in 10.0 mi Calm Calm - N/A   Mostly Cloudy